This demonstration page uses our WeatherBlox Daily Observations layout. Learn more.

41.55636, -103.73856

Hourly Observations for January 18, 2020

Temp ( °F °C ) Dew Point ( °F °C ) Humidity (%) Winds ( mph kmh ) Pressure ( in mb ) Visibility ( mi km ) Precip ( " mm )
12:58 am 00:58 Mostly Cloudy 38 3.2 22 -5.7 52 52 NW 37 59 29.86 1011 10 16.0934 0 0
1:58 am 01:58 Mostly Cloudy 28 -2.3 17 -8.1 65 65 NW 46 74 30.03 1017 10 16.0934 0 0
2:58 am 02:58 Mostly Cloudy with Scattered Snow Showers 26 -3.5 16 -8.9 67 67 NW 32 52 30.12 1020 10 16.0934 0 0
3:59 am 03:59 Mostly Cloudy with Scattered Snow Showers 24 -4.3 17 -8.1 75 75 NNW 26 43 30.16 1021 10 16.0934 0 0
4:58 am 04:58 Partly Cloudy 22 -5.4 16 -8.7 78 78 NW 20 31 30.21 1023 10 16.0934 0 0
5:58 am 05:58 Clear 22 -5.5 15 -9.4 74 74 NW 15 24 30.25 1025 10 16.0934 0 0
6:58 am 06:58 Clear 21 -6 15 -9.6 76 76 NW 18 30 30.26 1025 10 16.0934 0 0
7:58 am 07:58 Clear 20 -6.8 15 -9.7 80 80 NNW 16 26 30.26 1025 10 16.0934 0 0
8:58 am 08:58 Clear 22 -5.8 12 -11.3 66 66 WNW 15 24 30.28 1025 10 16.0934 0 0
9:59 am 09:59 Mostly Cloudy 22 -5.5 14 -10.2 70 70 NW 15 24 30.28 1025 10 16.0934 0 0
10:58 am 10:58 Partly Cloudy 22 -5.5 10 -12.2 60 60 NNW 13 20 30.29 1026 10 16.0934 0 0
11:58 am 11:58 Clear 19 -7 10 -12.3 66 66 NW 7 11 30.34 1028 10 16.0934 0 0
12:58 pm 12:58 Clear 16 -9.1 10 -12.5 77 77 SW 7 11 30.38 1029 10 16.0934 0 0
1:58 pm 13:58 Clear 15 -9.7 9 -12.7 79 79 WSW 6 9 30.42 1030 10 16.0934 0 0
2:58 pm 14:58 Sunny 16 -8.8 9 -12.7 74 74 SSW 5 7 30.44 1031 10 16.0934 0 0
3:58 pm 15:58 Sunny 22 -5.4 10 -12.1 60 60 W 7 11 30.42 1030 10 16.0934 0 0
4:58 pm 16:58 Sunny 29 -1.9 10 -12.5 45 45 NW 18 30 30.41 1030 10 16.0934 0 0
5:58 pm 17:58 Sunny 32 0.1 9 -12.8 38 38 NNW 17 28 30.41 1030 10 16.0934 0 0
6:58 pm 18:58 Sunny 36 2.1 8 -13.3 31 31 NW 25 41 30.39 1029 10 16.0934 0 0
7:58 pm 19:58 Sunny 37 2.7 8 -13.6 29 29 NW 26 43 30.37 1028 10 16.0934 0 0
8:58 pm 20:58 Sunny 37 2.5 8 -13.6 30 30 WNW 23 37 30.35 1028 10 16.0934 0 0
9:58 pm 21:58 Sunny 38 3.2 8 -13.5 28 28 WNW 26 43 30.36 1028 10 16.0934 0 0
10:58 pm 22:58 Sunny 37 2.8 9 -12.9 31 31 WNW 23 37 30.38 1029 10 16.0934 0 0
11:58 pm 23:58 Clear 34 0.9 11 -11.8 38 38 NW 21 33 30.43 1030 10 16.0934 0 0

Powered by AerisWeather